Location: Fort Wayne
(41.1310°N, 85.1290°W)
Time: 02:20:05
(UTC-05:00)

Iridium 37 - Visible Passes

Search period start: 02 March 2015 00:00
Search period end: 12 March 2015 01:00
Orbit: 776 x 779 km, 86.4° (Epoch: 01 March)

Date Brightness Start Highest point End Pass type
(mag) Time Alt. Az. Time Alt. Az. Time Alt. Az.
05 Mar 8.2 21:53:01 10° N 21:53:17 11° N 21:53:17 11° N visible
06 Mar 7.9 21:19:41 10° N 21:20:10 12° NNE 21:20:10 12° NNE visible
07 Mar 7.8 20:46:43 10° NNE 20:47:05 11° NNE 20:47:05 11° NNE visible
07 Mar 8.2 22:26:56 10° NNW 22:27:34 13° NNW 22:27:34 13° NNW visible
08 Mar 7.7 22:53:08 10° N 22:54:30 18° N 22:54:30 18° N visible
09 Mar 7.3 22:19:37 10° N 22:21:27 22° N 22:21:27 22° N visible
10 Mar 7.1 21:46:24 10° NNE 21:48:27 21° NNE 21:48:27 21° NNE visible
10 Mar 8.0 23:27:23 10° NNW 23:28:57 17° NW 23:28:57 17° NW visible
11 Mar 7.2 21:13:39 10° NNE 21:15:28 16° NE 21:15:28 16° NE visible
11 Mar 7.2 22:53:20 10° NNW 22:55:58 28° NNW 22:55:58 28° NNW visible
